sim
Sign-in with your pilot id or email,
or register
Callsign
Passwort

Schedule Details

Flight Number: RYR5912 (2)
Departure: Seville San Pablo Airport (LEZL) at 13:10
Arrival: Fuerteventura Airport (GCFV) at 15:25
Route: Ryanair Passenger Schedule. Enter filed route here before submitting Pirep.

Weather Information
Getting current METAR information for LEZL 231130Z 17002KT CAVOK 34/15 Q1014 NOSIG
Getting current METAR information for GCFV 231130Z 06014KT 9999 FEW020 24/18 Q1017

Schedule Frequency

Route Map